EW7556 Weather Reports


time (UTC)temp
C
wind
direction
speed
KPH
gust
KPH
rain 1hr
cm
rain 24hr
cm
rain mn
cm
humidity
%
barometer
mb
20260903130121 10 182 0.0 0.0 0.00 0.00 0.00 90 1006.9
20260903124513 10 182 0.0 0.0 0.00 0.00 0.00 90 1006.9
20260903123025 10 182 0.0 0.0 0.00 0.00 0.00 90 1006.8
20260903121517 10 182 0.0 0.0 0.00 0.00 0.00 90 1006.7
20260903120004 10 182 0.0 0.0 0.00 0.00 0.00 90 1006.5
20260903114507 10 182 0.0 0.0 0.00 0.00 0.00 90 1006.4
20260903113011 10 182 0.0 0.0 0.00 0.00 0.00 90 1006.3
20260903111512 9 182 0.0 3.2 0.00 0.00 0.00 90 1006.1
20260903110122 9 192 0.0 1.6 0.00 0.00 0.00 91 1005.8
20260903104501 8 192 0.0 3.2 0.00 0.00 0.00 91 1005.8
20260903103005 8 193 0.0 1.6 0.00 0.00 0.00 91 1005.8
20260903101508 8 193 0.0 0.0 0.00 0.00 0.00 91 1005.7
20260903100116 8 193 0.0 0.0 0.00 0.00 0.00 91 1005.7
20260903094605 8 193 0.0 0.0 0.00 0.00 0.00 91 1005.6
20260903093009 8 193 0.0 0.0 0.00 0.00 0.00 90 1005.6
20260903091513 8 193 0.0 0.0 0.00 0.00 0.00 90 1005.6
20260903090121 8 193 0.0 3.2 0.00 0.00 0.00 90 1005.5
20260903084503 9 193 0.0 0.0 0.00 0.00 0.00 90 1005.5
20260903083007 9 193 0.0 0.0 0.00 0.00 0.00 90 1005.7
20260903081517 8 193 0.0 0.0 0.00 0.00 0.00 90 1005.6
20260903080121 9 193 0.0 0.0 0.00 0.00 0.00 90 1005.3
20260903074547 9 193 0.0 1.6 0.00 0.00 0.00 90 1005.4
20260903073051 10 193 0.0 1.6 0.00 0.00 0.00 90 1005.5
20260903071621 9 193 0.0 1.6 0.00 0.00 0.00 90 1005.3
20260903064550 9 193 0.0 0.0 0.00 0.00 0.00 90 1005.1
20260903063102 9 193 0.0 1.6 0.00 0.00 0.00 90 1005.2
20260903061603 8 184 1.6 3.2 0.00 0.00 0.00 90 1005.1
20260903054549 8 212 0.0 0.0 0.00 0.00 0.00 90 1005.0
20260903053048 8 212 0.0 0.0 0.00 0.00 0.00 90 1005.2
20260903051551 9 252 0.0 1.6 0.00 0.00 0.00 90 1005.1
20260903050110 9 251 0.0 0.0 0.00 0.00 0.00 89 1005.1
20260903044553 10 251 0.0 0.0 0.00 0.00 0.00 89 1005.0
20260903043043 10 251 0.0 0.0 0.00 0.00 0.00 89 1004.9
20260903041556 11 251 0.0 0.0 0.00 0.00 0.00 88 1004.8
20260903040155 11 342 0.0 3.2 0.00 0.00 0.00 88 1004.5
20260903034542 12 333 1.6 9.7 0.00 0.00 0.00 89 1004.2
20260903033046 11 6 0.0 4.8 0.00 0.00 0.00 89 1003.8
20260903031549 11 302 0.0 1.6 0.00 0.00 0.00 87 1003.2
20260903030053 12 302 0.0 0.0 0.00 0.00 0.00 86 1002.9
20260903024541 13 326 0.0 6.4 0.00 0.00 0.00 85 1002.6
20260903023046 13 304 0.0 3.2 0.00 0.00 0.00 85 1002.5
20260903021553 14 243 1.6 12.9 0.00 0.00 0.00 84 1002.1
20260903020054 15 257 4.8 12.9 0.00 0.00 0.00 82 1001.7
20260903014538 16 198 6.4 11.3 0.00 0.00 0.00 77 1001.5
20260903013048 16 249 0.0 1.6 0.00 0.00 0.00 78 1000.9
20260903011547 16 359 0.0 9.7 0.00 0.00 0.00 78 1000.9
20260903010050 16 349 6.4 16.1 0.00 0.00 0.00 78 1000.2
20260903004552 16 10 4.8 16.1 0.00 0.00 0.00 79 1000.1
20260903003105 16 47 8.0 24.1 0.00 0.00 0.00 79 999.9
20260903001553 16 359 8.0 25.7 0.00 0.00 0.00 78 999.6
20260903000105 16 1 12.9 29.0 0.00 0.00 0.00 77 999.5
20260902234545 16 17 11.3 27.4 0.00 0.00 0.00 76 999.8
20260902233048 16 357 12.9 27.4 0.00 0.00 0.00 74 999.7
20260902231553 17 360 9.7 19.3 0.00 0.00 0.00 68 999.9
20260902230110 18 347 6.4 27.4 0.00 0.00 0.00 63 1000.0
20260902224603 18 333 8.0 22.5 0.00 0.00 0.00 60 1000.3
20260902223057 16 13 4.8 9.7 0.00 0.00 0.00 74 1000.3
20260902221554 16 212 1.6 4.8 0.00 0.00 0.00 80 1000.4
20260902220054 16 233 0.0 6.4 0.00 0.00 0.00 80 1000.3
20260902214608 15 223 4.8 12.9 0.00 0.00 0.00 81 1000.3
20260902213044 15 200 4.8 9.7 0.00 0.00 0.00 81 1000.5
20260902211545 16 250 4.8 12.9 0.00 0.00 0.00 80 1000.6
20260902210048 16 200 3.2 11.3 0.00 0.00 0.00 77 1000.7
20260902204531 17 209 3.2 8.0 0.00 0.00 0.00 77 1000.9
20260902203035 17 244 1.6 6.4 0.00 0.00 0.00 78 1001.2
20260902201539 16 240 0.0 4.8 0.00 0.00 0.00 79 1001.5
20260902200039 16 217 3.2 8.0 0.00 0.00 0.00 80 1001.6
20260902194536 16 212 1.6 6.4 0.00 0.00 0.00 80 1001.7
20260902193027 16 227 0.0 6.4 0.00 0.00 0.00 81 1002.0
20260902191530 16 214 3.2 6.4 0.00 0.00 0.00 80 1002.1
20260902190003 16 229 1.6 6.4 0.00 0.00 0.00 81 1002.3
20260902184506 16 233 1.6 6.4 0.00 0.00 0.00 81 1002.5
20260902183020 16 221 1.6 6.4 0.00 0.00 0.00 79 1002.8
20260902181531 17 223 0.0 3.2 0.00 0.00 0.00 78 1002.8
20260902180034 16 232 0.0 4.8 0.00 0.00 0.00 79 1003.0
20260902174537 16 250 0.0 0.0 0.00 0.00 0.00 80 1003.2
20260902173031 16 231 0.0 4.8 0.00 0.00 0.00 82 1003.4
20260902171537 16 249 1.6 6.4 0.00 0.00 0.00 82 1003.4
20260902170038 16 241 1.6 4.8 0.00 0.00 0.00 83 1003.7
20260902164531 16 216 0.0 0.0 0.00 0.00 0.00 83 1003.7
20260902163024 15 212 0.0 1.6 0.00 0.00 0.00 84 1003.9
20260902161533 15 214 0.0 3.2 0.00 0.00 0.00 85 1004.0
20260902160020 15 233 0.0 1.6 0.00 0.00 0.00 87 1004.1
20260902154527 13 233 0.0 3.2 0.00 0.00 0.00 89 1004.3
20260902153035 13 198 0.0 0.0 0.00 0.00 0.00 90 1004.5
20260902151538 12 198 0.0 0.0 0.00 0.00 0.00 90 1004.6
20260902150021 12 198 0.0 0.0 0.00 0.00 0.00 90 1004.7
20260902144527 11 198 0.0 3.2 0.00 0.00 0.00 90 1004.7
20260902143026 11 200 0.0 0.0 0.00 0.00 0.00 90 1004.9
20260902141533 10 200 0.0 0.0 0.00 0.00 0.00 91 1004.9
20260902140030 9 200 0.0 0.0 0.00 0.00 0.00 91 1004.9
20260902134516 9 200 0.0 0.0 0.00 0.00 0.00 91 1005.0
20260902133022 9 200 0.0 0.0 0.00 0.00 0.00 91 1005.0
20260902131522 8 200 0.0 0.0 0.00 0.00 0.00 91 1004.8